Location: Holyhead Bay
(53.3667°N, 4.6667°W)
Time: 18:41:25
(UTC+00:00)

Cosmos 2360 Rocket - Visible Passes

Search period start: 12 April 2021 00:00
Search period end: 22 April 2021 00:00
Orbit: 832 x 846 km, 71.0° (Epoch: 11 April)

Date Brightness Start Highest point End Pass type
(mag) Time Alt. Az. Time Alt. Az. Time Alt. Az.
12 Apr 2.4 20:24:30 10° NW 20:30:12 76° WSW 20:35:51 10° SSE visible
12 Apr 4.5 22:10:01 10° WNW 22:13:16 16° W 22:16:30 10° SW visible
13 Apr 2.3 20:08:45 10° NNW 20:14:27 80° WSW 20:20:06 10° SSE visible
13 Apr 4.5 21:54:07 10° WNW 21:57:34 17° W 22:01:00 10° SW visible
14 Apr 2.3 19:52:58 10° NNW 19:58:42 84° WSW 20:04:21 10° SSE visible
14 Apr 4.5 21:38:13 10° WNW 21:41:52 18° W 21:45:29 10° SW visible
15 Apr 4.5 21:22:21 10° WNW 21:26:10 19° W 21:29:57 10° SW visible
16 Apr 4.5 21:06:30 10° NW 21:10:27 20° W 21:14:23 10° SW visible
17 Apr 4.5 20:50:38 10° NW 20:54:44 21° W 20:58:50 10° SSW visible
18 Apr 4.4 20:34:48 10° NW 20:39:02 22° WSW 20:43:15 10° SSW visible
19 Apr 4.4 20:18:58 10° NW 20:23:20 23° WSW 20:27:40 10° SSW visible
20 Apr 4.4 20:03:08 10° NW 20:07:37 25° WSW 20:12:04 10° SSW visible
